Overview Statistics Trail Chart Weather Telemetry Raw packets
 

This is the latest recevied weather packets stored in our database for station/object DM8MH-13. If no packets are shown the sender has not sent any weather packets the latest 10 day(s).

<< 38 39 40 41 42 43 44 >>
Time Temp. Humidity Pressure Rain* Wind** Luminosity Snow
1787998271 22.78° C 60% 1013.4 hPa 0 mm - 549 W/m² -
1787997071 22.22° C 61% 1013.4 hPa 0 mm - 614 W/m² -
1787996471 22.22° C 61% 1013.4 hPa 0 mm - 705 W/m² -
1787995872 21.67° C 61% 1013.4 hPa 0 mm - 564 W/m² -
1787995271 21.67° C 62% 1013.5 hPa 0 mm - 474 W/m² -
1787994671 21.67° C 67% 1013.4 hPa 0 mm - 681 W/m² -
1787994071 21.11° C 68% 1013.4 hPa 0 mm - 606 W/m² -
1787993471 20.56° C 70% 1013.3 hPa 0 mm - 581 W/m² -
1787992871 20.56° C 70% 1013.2 hPa 0 mm - 577 W/m² -
1787992271 20° C 73% 1013.2 hPa 0 mm - 538 W/m² -
1787991671 19.44° C 74% 1013.1 hPa 0 mm - 477 W/m² -
1787991071 19.44° C 74% 1013.2 hPa 0 mm - 392 W/m² -
1787990471 18.89° C 75% 1013.1 hPa 0 mm - 396 W/m² -
1787989871 18.33° C 76% 1013.1 hPa 0 mm - 387 W/m² -
1787989274 17.78° C 79% 1013.1 hPa 0 mm - 160 W/m² -
1787988671 17.78° C 79% 1013 hPa 0 mm - 70 W/m² -
1787988071 17.78° C 79% 1013 hPa 0 mm - 106 W/m² -
1787987471 17.78° C 80% 1012.8 hPa 0 mm - 163 W/m² -
1787986871 17.78° C 80% 1012.9 hPa 0 mm - 165 W/m² -
1787986271 17.78° C 80% 1012.9 hPa 0 mm - 237 W/m² -
1787985671 17.22° C 79% 1012.7 hPa 0 mm - 194 W/m² -
1787985072 17.22° C 79% 1012.5 hPa 0 mm - 318 W/m² -
1787984471 17.22° C 80% 1012.6 hPa 0 mm - 242 W/m² -
1787983871 16.67° C 82% 1012.6 hPa 0 mm - 258 W/m² -
1787983271 16.11° C 82% 1012.5 hPa 0 mm - 215 W/m² -

* Rain latest hour (hover to see other rain measurements)
** Current wind speed in m/s (hover to see current wind gust speed)